• In Austria
  • List of Countries
  • For 7 days
  • Water Temperature
  • Satellite Maps
  • Weather Map
  • News
  • Weather Widgets
  • user-avatar
    Login

    Hourly Weather Lubosinek

    Today, 20 September, Thursday

    Time Temperature Precipitation Wind Pressure Humidity
    00:00 +21°C° 0.1 mm 2 mps 759 mmHg 70%
    01:00 +20°C° 0.1 mm 2 mps 759 mmHg 73%
    02:00 +20°C° 0 mm 2 mps 759 mmHg 75%
    03:00 +19°C° 0 mm 2 mps 759 mmHg 77%
    04:00 +19°C° 0 mm 2 mps 759 mmHg 79%
    05:00 +19°C° 0 mm 2 mps 759 mmHg 79%
    06:00 +19°C° 0 mm 2 mps 759 mmHg 78%
    07:00 +20°C° 0 mm 2 mps 759 mmHg 78%
    08:00 +23°C° 0 mm 2 mps 759 mmHg 70%
    09:00 +24°C° 0 mm 2 mps 760 mmHg 63%
    10:00 +26°C° 0 mm 2 mps 760 mmHg 56%
    11:00 +27°C° 0 mm 2 mps 759 mmHg 52%
    12:00 +28°C° 0 mm 3 mps 759 mmHg 49%
    13:00 +29°C° 0 mm 3 mps 759 mmHg 46%
    14:00 +29°C° 0 mm 3 mps 758 mmHg 45%
    15:00 +29°C° 0 mm 3 mps 758 mmHg 45%
    16:00 +30°C° 0 mm 3 mps 758 mmHg 45%
    17:00 +28°C° 0 mm 3 mps 757 mmHg 50%
    18:00 +26°C° 0 mm 2 mps 757 mmHg 55%
    19:00 +24°C° 0 mm 1 mps 757 mmHg 60%
    20:00 +24°C° 0 mm 2 mps 757 mmHg 62%
    21:00 +24°C° 0 mm 2 mps 757 mmHg 64%
    22:00 +23°C° 0 mm 2 mps 757 mmHg 65%
    23:00 +22°C° 0 mm 3 mps 757 mmHg 66%

    Tomorrow, 21 September, Friday

    Time Temperature Precipitation Wind Pressure Humidity
    00:00 +21°C° 0 mm 3 mps 756 mmHg 66%
    01:00 +21°C° 0 mm 3 mps 756 mmHg 67%
    02:00 +21°C° 0 mm 3 mps 756 mmHg 67%
    03:00 +20°C° 0 mm 3 mps 755 mmHg 68%
    04:00 +20°C° 0 mm 3 mps 755 mmHg 68%
    05:00 +20°C° 0 mm 3 mps 755 mmHg 68%
    06:00 +20°C° 0 mm 4 mps 754 mmHg 67%
    07:00 +21°C° 0 mm 4 mps 754 mmHg 67%
    08:00 +23°C° 0 mm 5 mps 754 mmHg 60%
    09:00 +26°C° 0 mm 5 mps 753 mmHg 53%
    10:00 +28°C° 0 mm 6 mps 753 mmHg 46%
    11:00 +29°C° 0 mm 6 mps 752 mmHg 42%
    12:00 +30°C° 0 mm 7 mps 751 mmHg 37%
    13:00 +32°C° 0 mm 7 mps 751 mmHg 33%
    14:00 +32°C° 0 mm 7 mps 750 mmHg 35%
    15:00 +30°C° 0 mm 6 mps 750 mmHg 36%
    16:00 +30°C° 0 mm 6 mps 750 mmHg 38%
    17:00 +26°C° 0.1 mm 6 mps 751 mmHg 46%
    18:00 +21°C° 0.1 mm 7 mps 752 mmHg 54%
    19:00 +16°C° 0.1 mm 7 mps 753 mmHg 62%
    20:00 +16°C° 0.1 mm 6 mps 754 mmHg 62%
    21:00 +15°C° 0.1 mm 5 mps 755 mmHg 61%
    22:00 +16°C° 0.1 mm 3 mps 756 mmHg 60%
    23:00 +14°C° 0 mm 4 mps 756 mmHg 57%

    Day after tomorrow, 22 September, Saturday

    Time Temperature Precipitation Wind Pressure Humidity
    00:00 +14°C° 0 mm 4 mps 756 mmHg 54%
    01:00 +14°C° 0 mm 4 mps 757 mmHg 52%
    02:00 +14°C° 0 mm 4 mps 757 mmHg 52%
    03:00 +13°C° 0 mm 4 mps 757 mmHg 52%
    04:00 +13°C° 0 mm 4 mps 757 mmHg 51%
    05:00 +13°C° 0 mm 5 mps 757 mmHg 53%
    06:00 +13°C° 0 mm 5 mps 758 mmHg 55%
    07:00 +13°C° 0 mm 5 mps 758 mmHg 57%
    08:00 +14°C° 0 mm 6 mps 758 mmHg 54%
    09:00 +15°C° 0 mm 6 mps 758 mmHg 51%
    10:00 +16°C° 0 mm 6 mps 758 mmHg 48%
    11:00 +17°C° 0 mm 7 mps 758 mmHg 45%
    12:00 +17°C° 0 mm 7 mps 758 mmHg 43%
    13:00 +18°C° 0 mm 7 mps 758 mmHg 40%
    14:00 +19°C° 0 mm 6 mps 758 mmHg 40%
    15:00 +19°C° 0 mm 6 mps 758 mmHg 41%
    16:00 +17°C° 0 mm 6 mps 758 mmHg 41%
    17:00 +17°C° 0 mm 5 mps 758 mmHg 43%
    18:00 +16°C° 0 mm 5 mps 758 mmHg 45%
    19:00 +15°C° 0 mm 4 mps 759 mmHg 47%
    20:00 +14°C° 0 mm 4 mps 759 mmHg 50%
    21:00 +13°C° 0 mm 4 mps 759 mmHg 52%
    22:00 +13°C° 0 mm 4 mps 759 mmHg 55%
    23:00 +12°C° 0 mm 4 mps 759 mmHg 58%

    23 September, Sunday

    Time Temperature Precipitation Wind Pressure Humidity
    00:00 +11°C° 0 mm 3 mps 759 mmHg 60%
    01:00 +11°C° 0 mm 3 mps 759 mmHg 63%
    02:00 +10°C° 0 mm 3 mps 759 mmHg 65%
    03:00 +10°C° 0 mm 3 mps 759 mmHg 68%
    04:00 +10°C° 0 mm 3 mps 759 mmHg 70%
    05:00 +10°C° 0 mm 3 mps 759 mmHg 70%
    06:00 +10°C° 0 mm 3 mps 759 mmHg 70%
    07:00 +10°C° 0 mm 4 mps 759 mmHg 69%
    08:00 +11°C° 0 mm 4 mps 759 mmHg 63%
    09:00 +13°C° 0 mm 4 mps 758 mmHg 57%
    10:00 +14°C° 0 mm 4 mps 758 mmHg 50%
    11:00 +15°C° 0 mm 4 mps 757 mmHg 48%
    12:00 +17°C° 0 mm 4 mps 756 mmHg 45%
    13:00 +17°C° 0 mm 4 mps 755 mmHg 43%
    14:00 +17°C° 0.1 mm 3 mps 754 mmHg 49%
    15:00 +16°C° 0.1 mm 3 mps 753 mmHg 54%
    16:00 +16°C° 0.1 mm 2 mps 752 mmHg 60%
    17:00 +14°C° 3 mm 3 mps 751 mmHg 69%
    18:00 +13°C° 3 mm 4 mps 749 mmHg 78%
    19:00 +12°C° 3 mm 5 mps 748 mmHg 87%
    20:00 +13°C° 4.1 mm 5 mps 746 mmHg 89%
    21:00 +14°C° 4.1 mm 5 mps 744 mmHg 91%
    22:00 +15°C° 4.1 mm 6 mps 743 mmHg 92%
    23:00 +15°C° 2.6 mm 6 mps 741 mmHg 91%

    24 September, Monday

    Time Temperature Precipitation Wind Pressure Humidity
    00:00 +16°C° 2.6 mm 6 mps 739 mmHg 91%
    01:00 +17°C° 2.6 mm 7 mps 738 mmHg 90%
    02:00 +16°C° 0.8 mm 7 mps 737 mmHg 84%
    03:00 +15°C° 0.8 mm 8 mps 737 mmHg 79%
    04:00 +12°C° 0.8 mm 8 mps 736 mmHg 74%
    05:00 +12°C° 0.1 mm 8 mps 736 mmHg 77%
    06:00 +12°C° 0.1 mm 7 mps 736 mmHg 79%
    07:00 +11°C° 0.1 mm 6 mps 737 mmHg 82%
    08:00 +11°C° 0.9 mm 8 mps 738 mmHg 82%
    09:00 +9°C° 0.9 mm 11 mps 740 mmHg 81%
    10:00 +9°C° 0.9 mm 13 mps 742 mmHg 81%
    11:00 +9°C° 0.5 mm 13 mps 744 mmHg 77%
    12:00 +10°C° 0.5 mm 12 mps 746 mmHg 73%
    13:00 +11°C° 0.5 mm 11 mps 748 mmHg 69%
    14:00 +11°C° 0.2 mm 11 mps 749 mmHg 69%
    15:00 +11°C° 0.2 mm 11 mps 751 mmHg 68%
    16:00 +11°C° 0.2 mm 11 mps 752 mmHg 68%
    17:00 +10°C° 0.1 mm 9 mps 753 mmHg 70%
    18:00 +10°C° 0.1 mm 8 mps 755 mmHg 72%
    19:00 +9°C° 0.1 mm 7 mps 756 mmHg 75%
    20:00 +9°C° 0.1 mm 7 mps 757 mmHg 75%
    21:00 +8°C° 0.1 mm 7 mps 757 mmHg 76%
    22:00 +8°C° 0.1 mm 7 mps 758 mmHg 77%
    23:00 +8°C° 0 mm 7 mps 759 mmHg 76%

    25 September, Tuesday

    Time Temperature Precipitation Wind Pressure Humidity
    00:00 +8°C° 0 mm 6 mps 759 mmHg 75%
    01:00 +7°C° 0 mm 6 mps 760 mmHg 75%
    02:00 +7°C° 0 mm 6 mps 760 mmHg 75%
    03:00 +7°C° 0 mm 6 mps 761 mmHg 76%
    04:00 +7°C° 0 mm 6 mps 761 mmHg 77%
    05:00 +7°C° 0.1 mm 6 mps 761 mmHg 78%
    06:00 +7°C° 0.1 mm 6 mps 762 mmHg 79%
    07:00 +7°C° 0.1 mm 5 mps 762 mmHg 80%
    08:00 +8°C° 0.2 mm 6 mps 763 mmHg 74%
    09:00 +9°C° 0.2 mm 6 mps 763 mmHg 67%
    10:00 +10°C° 0.2 mm 6 mps 764 mmHg 61%
    11:00 +11°C° 0.2 mm 6 mps 764 mmHg 58%
    12:00 +11°C° 0.2 mm 6 mps 765 mmHg 55%
    13:00 +13°C° 0.2 mm 6 mps 765 mmHg 52%
    14:00 +13°C° 0 mm 6 mps 765 mmHg 51%
    15:00 +13°C° 0 mm 6 mps 765 mmHg 50%
    16:00 +13°C° 0 mm 5 mps 765 mmHg 49%
    17:00 +12°C° 0 mm 4 mps 765 mmHg 55%
    18:00 +11°C° 0 mm 3 mps 766 mmHg 61%
    19:00 +9°C° 0 mm 2 mps 766 mmHg 67%
    20:00 +9°C° 0 mm 2 mps 766 mmHg 71%
    21:00 +9°C° 0 mm 2 mps 766 mmHg 74%
    22:00 +9°C° 0 mm 2 mps 767 mmHg 78%
    23:00 +9°C° 0 mm 2 mps 767 mmHg 82%
    Show more